Flag for U.S.A. Weather past 2 weeks in Lubbock, Texas, U.S.A.

Now
37 °F

Partly cloudy.


Feels Like: 30 °F
Forecast: 32 / 59 °F
Wind: 10 mph from Southwest

Location: Lubbock International Airport

Current Time: Dec 25, 2014 at 3:26:22 AM

Latest Report: Dec 25, 2014 at 2:53 AM


Visibility: 10 mi

Pressure: 29.76 "Hg

Humidity: 54%

Dew point: 22 °F

Location of LubbockLocation

Historic Weather in Lubbock — Graph

°F

Lubbock temperature yesterday

Maximum temperature yesterday: 49 °F (at 2:53 PM)
Minimum temperature yesterday: 25 °F (at 7:53 AM)
Average temperature yesterday: 37 °F

Past Weeks' High & Low Weather Summary

 TemperatureHumidityPressure
High66 °F (Dec 13, 4:53 PM)100% (Dec 12, 7:53 AM)30.35 "Hg (Dec 12, 7:53 AM)
Low25 °F (Dec 24, 7:53 AM)17% (Dec 14, 3:53 PM)29.52 "Hg (Dec 22, 12:53 AM)
Average46 °F70%29.99 "Hg
* Reported Dec 10 1:53 AM — Dec 25 1:53 AM, Lubbock, Weather by CustomWeather, © 2014

Note: Actual official high and low records may vary slightly from our data, if they occured in-between our weather recording intervals... More about our weather records

Advertising

Lubbock weather history for previous 24 hours

 ConditionsComfort  
Time TempWeatherWind HumidityBarometerVisibility
1:53 AM
Dec 25
36 °FPartly cloudy.10 mph57%29.78 "Hg10 mi
12:53 AM36 °FPassing clouds.13 mph59%29.79 "Hg10 mi
11:53 PM
Dec 24
37 °FClear.14 mph57%29.83 "Hg10 mi
10:53 PM38 °FClear.15 mph55%29.85 "Hg10 mi
9:53 PM39 °FClear.13 mph50%29.89 "Hg10 mi
8:53 PM39 °FClear.13 mph50%29.92 "Hg10 mi
7:53 PM40 °FClear.13 mph47%29.94 "Hg10 mi
6:53 PM41 °FClear.12 mph43%29.94 "Hg10 mi
5:53 PM44 °FClear.15 mph35%29.95 "Hg10 mi
4:53 PM47 °FSunny.17 mph28%29.94 "Hg10 mi
3:53 PM49 °FSunny.17 mph23%29.95 "Hg10 mi
2:53 PM49 °FSunny.21 mph25%29.97 "Hg10 mi
1:53 PM47 °FSunny.17 mph24%30.01 "Hg10 mi
12:53 PM46 °FSunny.14 mph27%30.05 "Hg10 mi
11:53 AM43 °FSunny.14 mph34%30.11 "Hg10 mi
10:53 AM38 °FSunny.13 mph43%30.15 "Hg10 mi
9:53 AM33 °FSunny.16 mph56%30.16 "Hg10 mi
8:53 AM29 °FSunny.9 mph69%30.16 "Hg10 mi
7:53 AM25 °FSunny.12 mph78%30.16 "Hg10 mi
6:53 AM27 °FClear.13 mph72%30.13 "Hg10 mi
5:53 AM27 °FClear.12 mph75%30.12 "Hg10 mi
4:53 AM28 °FClear.13 mph75%30.12 "Hg10 mi
3:53 AM27 °FClear.9 mph78%30.13 "Hg10 mi
Weather by CustomWeather, © 2014

See weather overviewHow to use our weather pages